| time (UTC) | temp F | wind direction | speed MPH | gust MPH | rain 1hr in | rain 24hr in | rain mn in | humidity % | barometer mb |
| 20260509074932 | 48 | 133 | 0.0 | 0.0 | 0.00 | 0.00 | 0.00 | 85 | 1009.9 |
| 20260509074429 | 48 | 125 | 0.0 | 1.0 | 0.00 | 0.00 | 0.00 | 85 | 1009.8 |
| 20260509073925 | 48 | 124 | 0.0 | 0.0 | 0.00 | 0.00 | 0.00 | 85 | 1009.8 |
| 20260509073421 | 48 | 124 | 0.0 | 0.0 | 0.00 | 0.00 | 0.00 | 85 | 1009.9 |
| 20260509072918 | 48 | 130 | 0.0 | 0.0 | 0.00 | 0.00 | 0.00 | 85 | 1009.9 |
| 20260509072415 | 49 | 115 | 0.0 | 0.0 | 0.00 | 0.00 | 0.00 | 84 | 1010.1 |
| 20260509071911 | 49 | 95 | 1.0 | 1.0 | 0.00 | 0.00 | 0.00 | 84 | 1010.2 |
| 20260509071408 | 49 | 132 | 0.0 | 0.0 | 0.00 | 0.00 | 0.00 | 84 | 1010.2 |
| 20260509070906 | 49 | 115 | 0.0 | 0.0 | 0.00 | 0.00 | 0.00 | 84 | 1010.2 |
| 20260509070402 | 49 | 158 | 0.0 | 1.0 | 0.00 | 0.00 | 0.00 | 84 | 1010.1 |
| 20260509065858 | 49 | 110 | 0.0 | 1.0 | 0.00 | 0.00 | 0.00 | 84 | 1010.0 |
| 20260509065355 | 49 | 111 | 0.0 | 0.0 | 0.00 | 0.00 | 0.00 | 83 | 1010.0 |
| 20260509064850 | 49 | 97 | 0.0 | 1.0 | 0.00 | 0.00 | 0.00 | 83 | 1010.3 |
| 20260509064348 | 49 | 335 | 1.0 | 1.0 | 0.00 | 0.00 | 0.00 | 83 | 1010.5 |
| 20260509063846 | 49 | 134 | 0.0 | 0.0 | 0.00 | 0.00 | 0.00 | 82 | 1010.7 |
| 20260509063342 | 49 | 146 | 0.0 | 1.0 | 0.00 | 0.00 | 0.00 | 82 | 1010.7 |
| 20260509062839 | 49 | 102 | 0.0 | 0.0 | 0.00 | 0.00 | 0.00 | 82 | 1010.5 |
| 20260509062336 | 49 | 105 | 0.0 | 0.0 | 0.00 | 0.00 | 0.00 | 82 | 1010.5 |
| 20260509061833 | 49 | 106 | 0.0 | 0.0 | 0.00 | 0.00 | 0.00 | 81 | 1010.8 |
| 20260509061332 | 50 | 106 | 0.0 | 0.0 | 0.00 | 0.00 | 0.00 | 81 | 1011.0 |
| 20260509060828 | 50 | 94 | 1.0 | 1.0 | 0.00 | 0.00 | 0.00 | 81 | 1011.3 |
| 20260509060325 | 50 | 107 | 0.0 | 0.0 | 0.00 | 0.00 | 0.00 | 80 | 1011.0 |
| 20260509055820 | 50 | 107 | 0.0 | 0.0 | 0.00 | 0.00 | 0.00 | 80 | 1010.9 |
| 20260509055316 | 49 | 107 | 0.0 | 0.0 | 0.00 | 0.00 | 0.00 | 80 | 1011.1 |
| 20260509054813 | 49 | 107 | 0.0 | 0.0 | 0.00 | 0.00 | 0.00 | 80 | 1011.1 |
| 20260509054310 | 50 | 107 | 0.0 | 0.0 | 0.00 | 0.00 | 0.00 | 80 | 1011.4 |
| 20260509053808 | 50 | 107 | 0.0 | 0.0 | 0.00 | 0.00 | 0.00 | 80 | 1011.3 |
| 20260509053305 | 50 | 108 | 0.0 | 0.0 | 0.00 | 0.00 | 0.00 | 80 | 1011.4 |
| 20260509052803 | 50 | 107 | 0.0 | 0.0 | 0.00 | 0.00 | 0.00 | 79 | 1011.4 |
| 20260509052300 | 50 | 112 | 0.0 | 0.0 | 0.00 | 0.00 | 0.00 | 78 | 1011.6 |
| 20260509051758 | 50 | 124 | 1.0 | 1.0 | 0.00 | 0.00 | 0.00 | 78 | 1011.4 |
| 20260509051256 | 50 | 101 | 0.0 | 0.0 | 0.00 | 0.00 | 0.00 | 78 | 1011.7 |
| 20260509050752 | 50 | 95 | 0.0 | 1.0 | 0.00 | 0.00 | 0.00 | 77 | 1011.8 |
| 20260509050249 | 49 | 63 | 1.0 | 1.0 | 0.00 | 0.00 | 0.00 | 79 | 1012.0 |
| 20260509045746 | 49 | 96 | 0.0 | 1.0 | 0.00 | 0.00 | 0.00 | 79 | 1011.7 |
| 20260509045243 | 49 | 90 | 0.0 | 0.0 | 0.00 | 0.00 | 0.00 | 79 | 1012.0 |
| 20260509044740 | 50 | 87 | 0.0 | 1.0 | 0.00 | 0.00 | 0.00 | 78 | 1011.9 |
| 20260509044238 | 50 | 96 | 0.0 | 0.0 | 0.00 | 0.00 | 0.00 | 79 | 1011.9 |
| 20260509043734 | 50 | 97 | 0.0 | 0.0 | 0.00 | 0.00 | 0.00 | 79 | 1012.0 |
| 20260509043230 | 50 | 34 | 2.0 | 3.0 | 0.00 | 0.00 | 0.00 | 78 | 1012.1 |
| 20260509042726 | 50 | 101 | 0.0 | 0.0 | 0.00 | 0.00 | 0.00 | 77 | 1011.8 |
| 20260509042222 | 50 | 78 | 0.0 | 1.0 | 0.00 | 0.00 | 0.00 | 77 | 1012.1 |
| 20260509041720 | 50 | 104 | 0.0 | 0.0 | 0.00 | 0.00 | 0.00 | 77 | 1011.7 |
| 20260509041217 | 51 | 105 | 0.0 | 0.0 | 0.00 | 0.00 | 0.00 | 76 | 1012.0 |
| 20260509040715 | 51 | 105 | 0.0 | 0.0 | 0.00 | 0.00 | 0.00 | 75 | 1012.1 |
| 20260509040212 | 51 | 105 | 0.0 | 0.0 | 0.00 | 0.00 | 0.00 | 74 | 1011.8 |
| 20260509035708 | 52 | 105 | 0.0 | 0.0 | 0.00 | 0.00 | 0.00 | 73 | 1011.9 |
| 20260509035205 | 51 | 105 | 0.0 | 0.0 | 0.00 | 0.00 | 0.00 | 72 | 1011.8 |
| 20260509034702 | 51 | 105 | 0.0 | 0.0 | 0.00 | 0.00 | 0.00 | 72 | 1012.0 |
| 20260509034200 | 51 | 105 | 0.0 | 0.0 | 0.00 | 0.00 | 0.00 | 72 | 1011.8 |
| 20260509033657 | 51 | 105 | 0.0 | 0.0 | 0.00 | 0.00 | 0.00 | 72 | 1011.6 |
| 20260509033153 | 51 | 104 | 0.0 | 0.0 | 0.00 | 0.00 | 0.00 | 72 | 1011.4 |
| 20260509032651 | 52 | 53 | 1.0 | 1.0 | 0.00 | 0.00 | 0.00 | 72 | 1011.5 |
| 20260509032147 | 52 | 112 | 0.0 | 0.0 | 0.00 | 0.00 | 0.00 | 71 | 1011.5 |
| 20260509031645 | 52 | 132 | 0.0 | 0.0 | 0.00 | 0.00 | 0.00 | 70 | 1011.6 |
| 20260509031142 | 52 | 132 | 0.0 | 0.0 | 0.00 | 0.00 | 0.00 | 70 | 1011.5 |
| 20260509030641 | 52 | 107 | 0.0 | 0.0 | 0.00 | 0.00 | 0.00 | 70 | 1011.5 |
| 20260509030138 | 52 | 111 | 0.0 | 0.0 | 0.00 | 0.00 | 0.00 | 70 | 1011.4 |
| 20260509025633 | 52 | 137 | 0.0 | 0.0 | 0.00 | 0.00 | 0.00 | 69 | 1011.6 |
| 20260509025129 | 52 | 114 | 0.0 | 0.0 | 0.00 | 0.00 | 0.00 | 70 | 1011.4 |
| 20260509024625 | 52 | 104 | 0.0 | 0.0 | 0.00 | 0.00 | 0.00 | 70 | 1011.7 |
| 20260509024121 | 53 | 102 | 0.0 | 0.0 | 0.00 | 0.00 | 0.00 | 68 | 1011.4 |
| 20260509023620 | 53 | 107 | 0.0 | 0.0 | 0.00 | 0.00 | 0.00 | 66 | 1011.3 |
| 20260509023116 | 53 | 115 | 1.0 | 1.0 | 0.00 | 0.00 | 0.00 | 66 | 1011.3 |
| 20260509022612 | 53 | 117 | 1.0 | 1.0 | 0.00 | 0.00 | 0.00 | 65 | 1011.5 |
| 20260509022111 | 53 | 116 | 0.0 | 0.0 | 0.00 | 0.00 | 0.00 | 67 | 1011.6 |
| 20260509021607 | 53 | 116 | 0.0 | 0.0 | 0.00 | 0.00 | 0.00 | 67 | 1011.8 |
| 20260509021104 | 53 | 115 | 0.0 | 0.0 | 0.00 | 0.00 | 0.00 | 67 | 1011.8 |
| 20260509020603 | 53 | 117 | 0.0 | 0.0 | 0.00 | 0.00 | 0.00 | 65 | 1011.8 |
| 20260509020059 | 54 | 117 | 0.0 | 0.0 | 0.00 | 0.00 | 0.00 | 65 | 1011.6 |
| 20260509015558 | 54 | 116 | 0.0 | 0.0 | 0.00 | 0.00 | 0.00 | 65 | 1011.4 |
| 20260509015055 | 54 | 111 | 0.0 | 0.0 | 0.00 | 0.00 | 0.00 | 64 | 1011.5 |
| 20260509014551 | 54 | 115 | 0.0 | 0.0 | 0.00 | 0.00 | 0.00 | 64 | 1011.7 |
| 20260509014048 | 54 | 125 | 0.0 | 0.0 | 0.00 | 0.00 | 0.00 | 63 | 1012.0 |
| 20260509013545 | 54 | 41 | 2.0 | 3.0 | 0.00 | 0.00 | 0.00 | 63 | 1011.8 |
| 20260509013040 | 54 | 115 | 0.0 | 1.0 | 0.00 | 0.00 | 0.00 | 63 | 1011.7 |
| 20260509012537 | 54 | 94 | 0.0 | 1.0 | 0.00 | 0.00 | 0.00 | 63 | 1011.7 |
| 20260509012034 | 54 | 121 | 0.0 | 0.0 | 0.00 | 0.00 | 0.00 | 64 | 1011.4 |
| 20260509011532 | 54 | 60 | 1.0 | 1.0 | 0.00 | 0.00 | 0.00 | 64 | 1011.4 |
| 20260509011029 | 54 | 95 | 1.0 | 1.0 | 0.00 | 0.00 | 0.00 | 63 | 1011.2 |
| 20260509010527 | 55 | 83 | 1.0 | 1.0 | 0.00 | 0.00 | 0.00 | 63 | 1011.5 |
| 20260509010023 | 54 | 136 | 0.0 | 0.0 | 0.00 | 0.00 | 0.00 | 63 | 1011.1 |
| 20260509005521 | 55 | 106 | 0.0 | 0.0 | 0.00 | 0.00 | 0.00 | 63 | 1011.1 |
| 20260509005021 | 55 | 90 | 1.0 | 1.0 | 0.00 | 0.00 | 0.00 | 63 | 1011.2 |
| 20260509004518 | 55 | 114 | 0.0 | 0.0 | 0.00 | 0.00 | 0.00 | 62 | 1011.1 |
| 20260509004015 | 55 | 127 | 0.0 | 0.0 | 0.00 | 0.00 | 0.00 | 62 | 1011.2 |
| 20260509003514 | 55 | 115 | 0.0 | 0.0 | 0.00 | 0.00 | 0.00 | 61 | 1011.1 |
| 20260509003010 | 55 | 94 | 0.0 | 0.0 | 0.00 | 0.00 | 0.00 | 61 | 1010.9 |
| 20260509002508 | 55 | 106 | 0.0 | 0.0 | 0.00 | 0.00 | 0.00 | 61 | 1011.0 |
| 20260509002005 | 56 | 122 | 0.0 | 0.0 | 0.00 | 0.00 | 0.00 | 60 | 1010.9 |
| 20260509001502 | 56 | 106 | 0.0 | 0.0 | 0.00 | 0.00 | 0.00 | 61 | 1011.0 |
| 20260509000958 | 56 | 106 | 0.0 | 0.0 | 0.00 | 0.00 | 0.00 | 60 | 1011.2 |
| 20260509000457 | 56 | 119 | 0.0 | 0.0 | 0.00 | 0.00 | 0.00 | 59 | 1011.1 |
| 20260508235952 | 57 | 117 | 0.0 | 0.0 | 0.00 | 0.00 | 0.00 | 58 | 1011.2 |
| 20260508235450 | 57 | 124 | 0.0 | 0.0 | 0.00 | 0.00 | 0.00 | 57 | 1011.2 |
| 20260508234946 | 57 | 241 | 3.0 | 4.0 | 0.00 | 0.00 | 0.00 | 56 | 1011.2 |
| 20260508234443 | 58 | 120 | 0.0 | 1.0 | 0.00 | 0.00 | 0.00 | 56 | 1010.9 |
| 20260508233941 | 58 | 310 | 4.0 | 6.0 | 0.00 | 0.00 | 0.00 | 55 | 1010.7 |
| 20260508233440 | 58 | 303 | 1.0 | 3.0 | 0.00 | 0.00 | 0.00 | 54 | 1011.1 |
| 20260508232937 | 58 | 169 | 1.0 | 1.0 | 0.00 | 0.00 | 0.00 | 54 | 1011.1 |
| 20260508232434 | 58 | 120 | 0.0 | 1.0 | 0.00 | 0.00 | 0.00 | 55 | 1011.1 |
| 20260508231931 | 58 | 302 | 4.0 | 6.0 | 0.00 | 0.00 | 0.00 | 54 | 1011.2 |
| 20260508231428 | 58 | 246 | 5.0 | 7.0 | 0.00 | 0.00 | 0.00 | 54 | 1010.9 |
| 20260508230925 | 58 | 275 | 2.0 | 3.0 | 0.00 | 0.00 | 0.00 | 54 | 1010.8 |
| 20260508230421 | 58 | 177 | 1.0 | 1.0 | 0.00 | 0.00 | 0.00 | 53 | 1010.8 |
| 20260508225918 | 58 | 198 | 4.0 | 4.0 | 0.00 | 0.00 | 0.00 | 53 | 1011.0 |
| 20260508225415 | 58 | 219 | 3.0 | 6.0 | 0.00 | 0.00 | 0.00 | 53 | 1010.6 |
| 20260508224913 | 59 | 149 | 1.0 | 3.0 | 0.00 | 0.00 | 0.00 | 53 | 1010.8 |
| 20260508224410 | 59 | 144 | 0.0 | 1.0 | 0.00 | 0.00 | 0.00 | 54 | 1010.6 |
| 20260508223907 | 59 | 220 | 1.0 | 1.0 | 0.00 | 0.00 | 0.00 | 52 | 1010.6 |
| 20260508223405 | 60 | 143 | 0.0 | 0.0 | 0.00 | 0.00 | 0.00 | 53 | 1010.7 |
| 20260508222902 | 61 | 144 | 0.0 | 0.0 | 0.00 | 0.00 | 0.00 | 50 | 1010.7 |
| 20260508222359 | 61 | 183 | 4.0 | 4.0 | 0.00 | 0.00 | 0.00 | 51 | 1010.6 |
| 20260508221856 | 60 | 316 | 4.0 | 4.0 | 0.00 | 0.00 | 0.00 | 51 | 1010.9 |
| 20260508221351 | 59 | 284 | 5.0 | 7.0 | 0.00 | 0.00 | 0.00 | 54 | 1010.8 |
| 20260508220848 | 58 | 5 | 3.0 | 4.0 | 0.00 | 0.00 | 0.00 | 56 | 1010.8 |
| 20260508220344 | 58 | 187 | 4.0 | 4.0 | 0.00 | 0.00 | 0.00 | 56 | 1010.7 |
| 20260508215841 | 58 | 131 | 0.0 | 0.0 | 0.00 | 0.00 | 0.00 | 59 | 1010.8 |
| 20260508215338 | 58 | 313 | 5.0 | 6.0 | 0.00 | 0.00 | 0.00 | 57 | 1010.8 |
| 20260508214835 | 58 | 181 | 1.0 | 1.0 | 0.00 | 0.00 | 0.00 | 59 | 1010.7 |
| 20260508214332 | 57 | 111 | 0.0 | 1.0 | 0.00 | 0.00 | 0.00 | 64 | 1010.7 |
| 20260508213828 | 57 | 115 | 0.0 | 0.0 | 0.00 | 0.00 | 0.00 | 65 | 1010.6 |
| 20260508213325 | 57 | 116 | 0.0 | 0.0 | 0.00 | 0.00 | 0.00 | 64 | 1010.6 |
| 20260508212821 | 56 | 125 | 0.0 | 0.0 | 0.00 | 0.00 | 0.00 | 64 | 1010.4 |
| 20260508212318 | 56 | 123 | 0.0 | 0.0 | 0.00 | 0.00 | 0.00 | 64 | 1010.3 |
| 20260508211814 | 56 | 159 | 0.0 | 1.0 | 0.00 | 0.00 | 0.00 | 66 | 1010.7 |
| 20260508211309 | 56 | 9 | 1.0 | 1.0 | 0.00 | 0.00 | 0.00 | 66 | 1010.7 |
| 20260508210807 | 56 | 118 | 0.0 | 1.0 | 0.00 | 0.00 | 0.00 | 65 | 1010.5 |
| 20260508210304 | 56 | 149 | 0.0 | 1.0 | 0.00 | 0.00 | 0.00 | 64 | 1010.6 |
| 20260508205801 | 57 | 115 | 0.0 | 0.0 | 0.00 | 0.00 | 0.00 | 64 | 1010.5 |
| 20260508205257 | 59 | 99 | 1.0 | 1.0 | 0.00 | 0.00 | 0.00 | 60 | 1010.5 |
| 20260508204753 | 60 | 202 | 3.0 | 4.0 | 0.00 | 0.00 | 0.00 | 53 | 1010.6 |
| 20260508204250 | 60 | 205 | 4.0 | 4.0 | 0.00 | 0.00 | 0.00 | 57 | 1010.9 |
| 20260508203746 | 59 | 306 | 5.0 | 9.0 | 0.00 | 0.00 | 0.00 | 54 | 1010.9 |
| 20260508203243 | 58 | 201 | 4.0 | 6.0 | 0.00 | 0.00 | 0.00 | 57 | 1010.8 |
| 20260508202738 | 57 | 190 | 8.0 | 10.0 | 0.00 | 0.00 | 0.00 | 58 | 1010.9 |
| 20260508202236 | 57 | 289 | 5.0 | 7.0 | 0.00 | 0.00 | 0.00 | 59 | 1011.0 |
| 20260508201733 | 56 | 194 | 3.0 | 4.0 | 0.00 | 0.00 | 0.00 | 61 | 1010.8 |
| 20260508201229 | 56 | 139 | 1.0 | 1.0 | 0.00 | 0.00 | 0.00 | 65 | 1010.8 |
| 20260508200726 | 59 | 236 | 6.0 | 7.0 | 0.00 | 0.00 | 0.00 | 58 | 1010.9 |
| 20260508200222 | 61 | 198 | 4.0 | 6.0 | 0.00 | 0.00 | 0.00 | 45 | 1010.5 |
| 20260508195719 | 61 | 247 | 7.0 | 10.0 | 0.00 | 0.00 | 0.00 | 44 | 1010.4 |
| 20260508195215 | 61 | 274 | 7.0 | 10.0 | 0.00 | 0.00 | 0.00 | 44 | 1010.4 |
| 20260508194712 | 61 | 212 | 2.0 | 3.0 | 0.00 | 0.00 | 0.00 | 44 | 1010.5 |
| 20260508194209 | 62 | 187 | 3.0 | 4.0 | 0.00 | 0.00 | 0.00 | 44 | 1010.5 |
| 20260508193706 | 61 | 184 | 2.0 | 3.0 | 0.00 | 0.00 | 0.00 | 45 | 1010.7 |
| 20260508193203 | 61 | 194 | 2.0 | 3.0 | 0.00 | 0.00 | 0.00 | 47 | 1010.7 |
| 20260508192659 | 60 | 15 | 3.0 | 4.0 | 0.00 | 0.00 | 0.00 | 45 | 1010.7 |
| 20260508192156 | 60 | 277 | 7.0 | 9.0 | 0.00 | 0.00 | 0.00 | 43 | 1010.6 |
| 20260508191654 | 61 | 278 | 7.0 | 9.0 | 0.00 | 0.00 | 0.00 | 43 | 1010.8 |
| 20260508191150 | 61 | 211 | 3.0 | 6.0 | 0.00 | 0.00 | 0.00 | 42 | 1010.9 |
| 20260508190648 | 61 | 251 | 3.0 | 3.0 | 0.00 | 0.00 | 0.00 | 42 | 1010.9 |
| 20260508190144 | 61 | 321 | 6.0 | 7.0 | 0.00 | 0.00 | 0.00 | 41 | 1010.6 |
| 20260508185641 | 61 | 169 | 4.0 | 6.0 | 0.00 | 0.00 | 0.00 | 40 | 1010.5 |
| 20260508185138 | 62 | 191 | 6.0 | 7.0 | 0.00 | 0.00 | 0.00 | 40 | 1010.6 |
| 20260508184635 | 62 | 195 | 1.0 | 3.0 | 0.00 | 0.00 | 0.00 | 40 | 1010.5 |
| 20260508184132 | 62 | 188 | 4.0 | 6.0 | 0.00 | 0.00 | 0.00 | 38 | 1010.4 |
| 20260508183629 | 63 | 320 | 4.0 | 4.0 | 0.00 | 0.00 | 0.00 | 39 | 1010.3 |
| 20260508183125 | 63 | 302 | 2.0 | 3.0 | 0.00 | 0.00 | 0.00 | 38 | 1010.5 |
| 20260508182621 | 63 | 27 | 5.0 | 7.0 | 0.00 | 0.00 | 0.00 | 37 | 1010.5 |
| 20260508182118 | 63 | 188 | 2.0 | 3.0 | 0.00 | 0.00 | 0.00 | 37 | 1010.4 |
| 20260508181613 | 64 | 200 | 3.0 | 4.0 | 0.00 | 0.00 | 0.00 | 37 | 1010.4 |
| 20260508181111 | 65 | 207 | 5.0 | 6.0 | 0.00 | 0.00 | 0.00 | 37 | 1010.7 |
| 20260508180607 | 63 | 76 | 3.0 | 4.0 | 0.00 | 0.00 | 0.00 | 38 | 1011.1 |
| 20260508180103 | 64 | 211 | 5.0 | 6.0 | 0.00 | 0.00 | 0.00 | 37 | 1011.0 |
| 20260508175601 | 63 | 234 | 6.0 | 7.0 | 0.00 | 0.00 | 0.00 | 38 | 1011.0 |
| 20260508175058 | 66 | 187 | 5.0 | 6.0 | 0.00 | 0.00 | 0.00 | 38 | 1011.2 |
| 20260508174555 | 65 | 168 | 3.0 | 4.0 | 0.00 | 0.00 | 0.00 | 40 | 1011.3 |
| 20260508174052 | 64 | 354 | 7.0 | 10.0 | 0.00 | 0.00 | 0.00 | 38 | 1011.4 |
| 20260508173549 | 61 | 220 | 4.0 | 4.0 | 0.00 | 0.00 | 0.00 | 41 | 1011.7 |
| 20260508173045 | 61 | 226 | 3.0 | 3.0 | 0.00 | 0.00 | 0.00 | 42 | 1011.7 |
| 20260508172542 | 61 | 226 | 2.0 | 3.0 | 0.00 | 0.00 | 0.00 | 41 | 1011.4 |
| 20260508172039 | 60 | 218 | 4.0 | 6.0 | 0.00 | 0.00 | 0.00 | 41 | 1011.3 |
| 20260508171535 | 62 | 230 | 3.0 | 4.0 | 0.00 | 0.00 | 0.00 | 40 | 1011.4 |
| 20260508171032 | 61 | 164 | 6.0 | 9.0 | 0.00 | 0.00 | 0.00 | 40 | 1011.4 |
| 20260508170529 | 63 | 323 | 10.0 | 14.0 | 0.00 | 0.00 | 0.00 | 39 | 1011.4 |
| 20260508170026 | 64 | 215 | 5.0 | 6.0 | 0.00 | 0.00 | 0.00 | 38 | 1011.3 |
| 20260508165523 | 64 | 229 | 7.0 | 9.0 | 0.00 | 0.00 | 0.00 | 40 | 1011.7 |
| 20260508165020 | 64 | 1 | 5.0 | 10.0 | 0.00 | 0.00 | 0.00 | 39 | 1011.6 |
| 20260508164517 | 63 | 127 | 2.0 | 3.0 | 0.00 | 0.00 | 0.00 | 42 | 1011.6 |
| 20260508164013 | 60 | 178 | 4.0 | 6.0 | 0.00 | 0.00 | 0.00 | 43 | 1011.6 |
| 20260508163511 | 60 | 190 | 2.0 | 3.0 | 0.00 | 0.00 | 0.00 | 44 | 1011.7 |
| 20260508163007 | 59 | 194 | 6.0 | 7.0 | 0.00 | 0.00 | 0.00 | 44 | 1011.9 |
| 20260508162504 | 59 | 67 | 5.0 | 9.0 | 0.00 | 0.00 | 0.00 | 43 | 1011.8 |
| 20260508162001 | 59 | 295 | 4.0 | 4.0 | 0.00 | 0.00 | 0.00 | 44 | 1011.9 |
| 20260508161458 | 60 | 210 | 3.0 | 4.0 | 0.00 | 0.00 | 0.00 | 43 | 1011.9 |
| 20260508160955 | 61 | 114 | 1.0 | 1.0 | 0.00 | 0.00 | 0.00 | 43 | 1012.0 |
| 20260508160454 | 61 | 199 | 5.0 | 6.0 | 0.00 | 0.00 | 0.00 | 42 | 1012.0 |
| 20260508155950 | 62 | 1 | 4.0 | 6.0 | 0.00 | 0.00 | 0.00 | 41 | 1012.1 |
| 20260508155447 | 62 | 233 | 5.0 | 7.0 | 0.00 | 0.00 | 0.00 | 40 | 1012.0 |
| 20260508154944 | 61 | 223 | 7.0 | 9.0 | 0.00 | 0.00 | 0.00 | 40 | 1012.3 |
| 20260508154442 | 60 | 346 | 5.0 | 7.0 | 0.00 | 0.00 | 0.00 | 41 | 1012.1 |
| 20260508153938 | 61 | 314 | 5.0 | 9.0 | 0.00 | 0.00 | 0.00 | 42 | 1012.3 |
| 20260508153435 | 60 | 265 | 7.0 | 7.0 | 0.00 | 0.00 | 0.00 | 43 | 1012.1 |
| 20260508152931 | 60 | 324 | 6.0 | 10.0 | 0.00 | 0.00 | 0.00 | 42 | 1012.4 |
| 20260508152428 | 60 | 158 | 2.0 | 3.0 | 0.00 | 0.00 | 0.00 | 44 | 1012.3 |
| 20260508151924 | 60 | 284 | 7.0 | 9.0 | 0.00 | 0.00 | 0.00 | 44 | 1012.1 |
| 20260508151422 | 59 | 232 | 5.0 | 9.0 | 0.00 | 0.00 | 0.00 | 44 | 1012.2 |
| 20260508150918 | 60 | 232 | 5.0 | 9.0 | 0.00 | 0.00 | 0.00 | 44 | 1012.2 |
| 20260508150414 | 59 | 281 | 5.0 | 9.0 | 0.00 | 0.00 | 0.00 | 45 | 1012.1 |
| 20260508145910 | 59 | 167 | 5.0 | 9.0 | 0.00 | 0.00 | 0.00 | 45 | 1012.2 |
| 20260508145407 | 59 | 262 | 2.0 | 3.0 | 0.00 | 0.00 | 0.00 | 46 | 1012.2 |
| 20260508144904 | 58 | 205 | 5.0 | 6.0 | 0.00 | 0.00 | 0.00 | 46 | 1012.4 |
| 20260508144402 | 58 | 141 | 7.0 | 10.0 | 0.00 | 0.00 | 0.00 | 47 | 1012.3 |
| 20260508143859 | 57 | 45 | 2.0 | 6.0 | 0.00 | 0.00 | 0.00 | 48 | 1012.3 |
| 20260508143356 | 57 | 296 | 4.0 | 6.0 | 0.00 | 0.00 | 0.00 | 47 | 1012.4 |
| 20260508142852 | 57 | 182 | 3.0 | 4.0 | 0.00 | 0.00 | 0.00 | 48 | 1012.4 |
| 20260508142350 | 57 | 234 | 6.0 | 9.0 | 0.00 | 0.00 | 0.00 | 48 | 1012.2 |
| 20260508141846 | 57 | 206 | 4.0 | 4.0 | 0.00 | 0.00 | 0.00 | 48 | 1012.2 |
| 20260508141343 | 57 | 194 | 8.0 | 10.0 | 0.00 | 0.00 | 0.00 | 48 | 1012.4 |
| 20260508140841 | 56 | 188 | 6.0 | 7.0 | 0.00 | 0.00 | 0.00 | 49 | 1012.3 |
| 20260508140337 | 55 | 196 | 2.0 | 3.0 | 0.00 | 0.00 | 0.00 | 50 | 1012.6 |
| 20260508135833 | 54 | 180 | 2.0 | 3.0 | 0.00 | 0.00 | 0.00 | 53 | 1012.6 |
| 20260508135330 | 54 | 162 | 2.0 | 3.0 | 0.00 | 0.00 | 0.00 | 52 | 1012.8 |
| 20260508134826 | 53 | 185 | 4.0 | 6.0 | 0.00 | 0.00 | 0.00 | 54 | 1012.6 |
| 20260508134322 | 52 | 181 | 6.0 | 9.0 | 0.00 | 0.00 | 0.00 | 54 | 1012.7 |
| 20260508133819 | 52 | 183 | 3.0 | 3.0 | 0.00 | 0.00 | 0.00 | 56 | 1012.7 |
| 20260508133317 | 52 | 190 | 2.0 | 3.0 | 0.00 | 0.00 | 0.00 | 57 | 1012.7 |
| 20260508132814 | 51 | 182 | 3.0 | 4.0 | 0.00 | 0.00 | 0.00 | 60 | 1012.8 |
| 20260508132312 | 50 | 169 | 3.0 | 3.0 | 0.00 | 0.00 | 0.00 | 60 | 1012.9 |
| 20260508131808 | 50 | 152 | 5.0 | 6.0 | 0.00 | 0.00 | 0.00 | 62 | 1012.8 |
| 20260508131304 | 49 | 94 | 2.0 | 3.0 | 0.00 | 0.00 | 0.00 | 62 | 1012.9 |
| 20260508130800 | 49 | 155 | 1.0 | 1.0 | 0.00 | 0.00 | 0.00 | 63 | 1013.3 |
| 20260508130258 | 48 | 155 | 4.0 | 6.0 | 0.00 | 0.00 | 0.00 | 64 | 1013.3 |
| 20260508125754 | 47 | 148 | 1.0 | 1.0 | 0.00 | 0.00 | 0.00 | 65 | 1013.3 |
| 20260508125250 | 46 | 136 | 1.0 | 1.0 | 0.00 | 0.00 | 0.00 | 67 | 1013.3 |
| 20260508124749 | 44 | 151 | 0.0 | 0.0 | 0.00 | 0.00 | 0.00 | 70 | 1013.4 |
| 20260508124245 | 44 | 157 | 2.0 | 3.0 | 0.00 | 0.00 | 0.00 | 70 | 1013.3 |
| 20260508123743 | 43 | 150 | 1.0 | 1.0 | 0.00 | 0.00 | 0.00 | 71 | 1013.5 |
| 20260508123241 | 42 | 136 | 1.0 | 1.0 | 0.00 | 0.00 | 0.00 | 75 | 1013.4 |
| 20260508122737 | 41 | 135 | 1.0 | 1.0 | 0.00 | 0.00 | 0.00 | 76 | 1013.3 |
| 20260508122234 | 40 | 136 | 0.0 | 0.0 | 0.00 | 0.00 | 0.00 | 77 | 1013.6 |
| 20260508121731 | 40 | 137 | 1.0 | 1.0 | 0.00 | 0.00 | 0.00 | 78 | 1013.5 |
| 20260508121230 | 40 | 135 | 0.0 | 0.0 | 0.00 | 0.00 | 0.00 | 79 | 1013.4 |
| 20260508120726 | 40 | 135 | 0.0 | 0.0 | 0.00 | 0.00 | 0.00 | 79 | 1013.7 |
| 20260508120225 | 40 | 142 | 0.0 | 0.0 | 0.00 | 0.00 | 0.00 | 79 | 1013.5 |
| 20260508115722 | 40 | 146 | 1.0 | 1.0 | 0.00 | 0.00 | 0.00 | 79 | 1013.5 |
| 20260508115220 | 39 | 123 | 0.0 | 0.0 | 0.00 | 0.00 | 0.00 | 79 | 1013.3 |
| 20260508114716 | 39 | 122 | 0.0 | 0.0 | 0.00 | 0.00 | 0.00 | 79 | 1013.5 |
| 20260508114213 | 39 | 122 | 0.0 | 0.0 | 0.00 | 0.00 | 0.00 | 80 | 1013.6 |
| 20260508113709 | 38 | 123 | 0.0 | 0.0 | 0.00 | 0.00 | 0.00 | 80 | 1013.5 |
| 20260508113208 | 38 | 143 | 0.0 | 1.0 | 0.00 | 0.00 | 0.00 | 80 | 1013.3 |
| 20260508112703 | 38 | 150 | 1.0 | 1.0 | 0.00 | 0.00 | 0.00 | 80 | 1013.1 |
| 20260508112201 | 38 | 141 | 1.0 | 1.0 | 0.00 | 0.00 | 0.00 | 80 | 1013.3 |
| 20260508111657 | 38 | 129 | 0.0 | 0.0 | 0.00 | 0.00 | 0.00 | 80 | 1013.3 |
| 20260508111155 | 38 | 128 | 1.0 | 1.0 | 0.00 | 0.00 | 0.00 | 80 | 1013.3 |
| 20260508110652 | 38 | 141 | 0.0 | 0.0 | 0.00 | 0.00 | 0.00 | 80 | 1013.5 |
| 20260508110149 | 38 | 143 | 0.0 | 0.0 | 0.00 | 0.00 | 0.00 | 81 | 1013.3 |
| 20260508105643 | 38 | 146 | 0.0 | 0.0 | 0.00 | 0.00 | 0.00 | 81 | 1013.0 |
| 20260508105140 | 38 | 120 | 0.0 | 0.0 | 0.00 | 0.00 | 0.00 | 82 | 1013.0 |
| 20260508104638 | 37 | 120 | 0.0 | 0.0 | 0.00 | 0.00 | 0.00 | 82 | 1012.9 |
| 20260508104135 | 36 | 120 | 0.0 | 0.0 | 0.00 | 0.00 | 0.00 | 82 | 1012.9 |
| 20260508103632 | 36 | 119 | 0.0 | 0.0 | 0.00 | 0.00 | 0.00 | 82 | 1012.6 |
| 20260508103129 | 35 | 120 | 0.0 | 0.0 | 0.00 | 0.00 | 0.00 | 82 | 1013.0 |
| 20260508102626 | 36 | 115 | 0.0 | 0.0 | 0.00 | 0.00 | 0.00 | 82 | 1012.8 |
| 20260508102124 | 36 | 116 | 0.0 | 0.0 | 0.00 | 0.00 | 0.00 | 82 | 1012.6 |
| 20260508101621 | 36 | 116 | 0.0 | 0.0 | 0.00 | 0.00 | 0.00 | 81 | 1012.6 |
| 20260508101118 | 36 | 116 | 0.0 | 0.0 | 0.00 | 0.00 | 0.00 | 80 | 1012.8 |
| 20260508100616 | 36 | 116 | 0.0 | 0.0 | 0.00 | 0.00 | 0.00 | 80 | 1012.8 |
| 20260508100114 | 36 | 105 | 0.0 | 0.0 | 0.00 | 0.00 | 0.00 | 80 | 1012.8 |
| 20260508095610 | 36 | 103 | 0.0 | 0.0 | 0.00 | 0.00 | 0.00 | 80 | 1012.6 |
| 20260508095107 | 36 | 106 | 0.0 | 0.0 | 0.00 | 0.00 | 0.00 | 80 | 1012.6 |
| 20260508094604 | 36 | 110 | 0.0 | 1.0 | 0.00 | 0.00 | 0.00 | 79 | 1012.5 |
| 20260508094101 | 36 | 116 | 0.0 | 0.0 | 0.00 | 0.00 | 0.00 | 79 | 1012.5 |
| 20260508093558 | 36 | 99 | 0.0 | 0.0 | 0.00 | 0.00 | 0.00 | 79 | 1012.4 |
| 20260508093056 | 36 | 89 | 0.0 | 1.0 | 0.00 | 0.00 | 0.00 | 79 | 1012.5 |
| 20260508092553 | 36 | 89 | 0.0 | 1.0 | 0.00 | 0.00 | 0.00 | 78 | 1012.6 |
| 20260508092052 | 36 | 90 | 0.0 | 1.0 | 0.00 | 0.00 | 0.00 | 78 | 1012.4 |
| 20260508091549 | 36 | 92 | 0.0 | 0.0 | 0.00 | 0.00 | 0.00 | 77 | 1012.5 |
| 20260508091045 | 36 | 84 | 0.0 | 1.0 | 0.00 | 0.00 | 0.00 | 77 | 1012.4 |
| 20260508090543 | 36 | 58 | 1.0 | 1.0 | 0.00 | 0.00 | 0.00 | 77 | 1012.4 |
| 20260508090039 | 36 | 65 | 1.0 | 1.0 | 0.00 | 0.00 | 0.00 | 78 | 1012.4 |
| 20260508085536 | 37 | 88 | 0.0 | 1.0 | 0.00 | 0.00 | 0.00 | 77 | 1012.5 |
| 20260508085033 | 37 | 106 | 0.0 | 1.0 | 0.00 | 0.00 | 0.00 | 77 | 1012.4 |
| 20260508084530 | 37 | 108 | 0.0 | 0.0 | 0.00 | 0.00 | 0.00 | 77 | 1012.4 |
| 20260508084028 | 37 | 108 | 0.0 | 0.0 | 0.00 | 0.00 | 0.00 | 76 | 1012.4 |
| 20260508083525 | 38 | 108 | 0.0 | 0.0 | 0.00 | 0.00 | 0.00 | 76 | 1012.4 |
| 20260508083021 | 38 | 109 | 0.0 | 0.0 | 0.00 | 0.00 | 0.00 | 75 | 1012.1 |
| 20260508082517 | 38 | 110 | 0.0 | 0.0 | 0.00 | 0.00 | 0.00 | 74 | 1012.3 |
| 20260508082015 | 38 | 110 | 0.0 | 0.0 | 0.00 | 0.00 | 0.00 | 72 | 1012.5 |
| 20260508081512 | 39 | 110 | 0.0 | 0.0 | 0.00 | 0.00 | 0.00 | 71 | 1012.5 |
| 20260508081008 | 39 | 108 | 0.0 | 0.0 | 0.00 | 0.00 | 0.00 | 70 | 1012.3 |
| 20260508080506 | 39 | 74 | 1.0 | 1.0 | 0.00 | 0.00 | 0.00 | 71 | 1012.2 |
| 20260508080003 | 40 | 117 | 0.0 | 0.0 | 0.00 | 0.00 | 0.00 | 69 | 1012.2 |
| 20260508075459 | 39 | 76 | 1.0 | 1.0 | 0.00 | 0.00 | 0.00 | 70 | 1012.4 |